Home > Weather > Damascus > Past weeks

Flag for Syria Weather for the Past 2 Weeks in Damascus, Syria

Now
37 °F

Chilly.


Feels Like: 35 °F
Forecast: 29 / 65 °F
Wind: 3 mph from West

Location: Damascus Int. Airport

Current Time: Feb 12, 2016 at 5:45:54 AM

Latest Report: Feb 12, 2016 at 4:00 AM


Visibility: 4 mi

Pressure: 30.24 "Hg (27.77 "Hg at 689m altitude)

Humidity: 87%

Dew point: 34 °F

Location of DamascusLocation

Historic Weather in Damascus — Graph

°F

Damascus Temperature Yesterday

Maximum temperature yesterday: 63 °F (at 1:00 PM)
Minimum temperature yesterday: 30 °F (at 5:00 AM)
Average temperature yesterday: 47 °F

High & Low Weather Summary for the Past Weeks

 TemperatureHumidityPressure
High66 °F (Feb 5, 2:00 PM)100% (Feb 2, 3:00 AM)30.45 "Hg (Feb 2, 3:00 AM)
Low14 °F (Jan 28, 7:00 AM)0% (Feb 4, 10:00 PM)29.83 "Hg (Feb 6, 2:00 PM)
Average44 °F59%30.21 "Hg
* Reported Jan 28 4:00 AM — Feb 12 4:00 AM, Damascus, Weather by CustomWeather, © 2016

Note: Actual official high and low records may vary slightly from our data, if they occured in-between our weather recording intervals... More about our weather records

Advertising

Damascus Weather History for the Previous 24 Hours

 ConditionsComfort  
Time TempWeatherWind HumidityBarometerVisibility
4:00 AM
Fri, Feb 12
37 °FChilly.3 mph87%30.24 "Hg4 mi
3:00 AM39 °FChilly.7 mph93%30.24 "Hg4 mi
2:00 AM41 °FQuite cool.7 mph93%30.24 "Hg4 mi
1:00 AM45 °FClear.9 mph87%30.24 "Hg10 mi
12:00 AM46 °FClear.12 mph87%30.24 "Hg10 mi
11:00 PM
Thu, Feb 11
46 °FClear.8 mph87%30.24 "Hg10 mi
10:00 PM48 °FPassing clouds.9 mph82%30.24 "HgN/A
9:00 PM50 °FCool.12 mph71%30.24 "HgN/A
8:00 PM52 °FPassing clouds.9 mph67%30.24 "HgN/A
7:00 PM54 °FPartly cloudy.16 mph63%30.24 "HgN/A
6:00 PM55 °FPartly cloudy.14 mph51%30.21 "HgN/A
5:00 PM57 °FScattered clouds.18 mph44%30.21 "HgN/A
4:00 PM59 °FScattered clouds.20 mph42%30.18 "HgN/A
3:00 PM61 °FScattered clouds.18 mph39%30.18 "HgN/A
2:00 PM63 °FScattered clouds.16 mph34%30.18 "HgN/A
1:00 PM63 °FMild.No wind34%30.18 "HgN/A
12:00 PM59 °FScattered clouds.18 mph48%30.21 "HgN/A
11:00 AM55 °FPassing clouds.12 mph67%30.24 "HgN/A
10:00 AM48 °FScattered clouds.14 mph71%30.24 "HgN/A
9:00 AM39 °FChilly.5 mph75%30.24 "Hg4 mi
8:00 AM32 °FIce fog.No wind100%30.24 "Hg2 mi
7:00 AM32 °FIce fog.7 mph93%30.21 "Hg2 mi
6:00 AM30 °FClear.No wind80%30.21 "Hg10 mi
5:00 AM30 °FClear.5 mph80%30.18 "Hg10 mi
Weather by CustomWeather, © 2016

See weather overviewHow to use our weather pages